Weather History for Sheridan, WY

Change the Weather History Date:

Tuesday, October 23, 2012

  Actual Average Record
Temperature  
Mean Temperature 42 °F 43 °F  
Max Temperature 48 °F 57 °F 81 °F (1915)
Min Temperature 35 °F 29 °F 9 °F (1916)
Degree Days  
Heating Degree Days 23 22  
Month to date heating degree days 417 416  
Since 1 July heating degree days 567 719  
Cooling Degree Days 0 0  
Month to date cooling degree days 0 0  
Year to date cooling degree days 664 418  
Moisture  
Dew Point 38 °F    
Average Humidity 85    
Maximum Humidity 100    
Minimum Humidity 70    
Precipitation  
Precipitation 0.08 in 0.04 in 0.87 in (1925)
Month to date precipitation 0.95 1.15  
Year to date precipitation 7.94 12.63  
Sea Level Pressure  
Sea Level Pressure 29.76 in    
Wind  
Wind Speed 7 mph (NNW)    
Max Wind Speed 24 mph    
Max Gust Speed 28 mph    
Visibility 10 miles    
Events Rain    
T = Trace of Precipitation, MM = Missing Value Source: NWS Daily Summary

Daily Weather History Graph

Daily Weather History Graph

Search for Another Location

Airport:

Trip Planner

Search our weather history database for the weather conditions in past years. The results will help you decide how hot, cold, wet, or windy it might be!

Date:

Astronomy

Oct. 23, 2012 Rise Set
Actual Time 7:34 AM MDT 6:09 PM MDT
Civil Twilight 7:04 AM MDT 6:38 PM MDT
Nautical Twilight 6:30 AM MDT 7:13 PM MDT
Astronomical Twilight 5:56 AM MDT 7:46 PM MDT
Moon 3:07 PM MDT (10/23) 1:15 AM MDT (10/23)
Length of Visible Light 11h 34m
Length of Day
10h 34m
Waxing Gibbous, 67% of the Moon is Illuminated
Oct 23
Waxing Gibbous
Oct 29
Full
Nov 6
Last Quarter
Nov 13
New
Nov 20
First Quarter

Hourly Weather History & Observations

Time (MDT) Temp. Windchill Dew Point Humidity Pressure Visibility Wind Dir Wind Speed Gust Speed Precip Events Conditions
12:53 AM 39.9 °F 35.1 °F 39.0 °F 97% 29.60 in 10.0 mi NW 6.9 mph - N/A   Clear
1:53 AM 42.1 °F 37.7 °F 39.9 °F 92% 29.61 in 10.0 mi WNW 6.9 mph - N/A   Overcast
2:53 AM 41.0 °F 39.0 °F 39.9 °F 96% 29.59 in 10.0 mi SSE 3.5 mph - N/A   Overcast
3:53 AM 42.1 °F 38.4 °F 39.9 °F 92% 29.60 in 10.0 mi NW 5.8 mph - N/A   Overcast
4:53 AM 39.9 °F 31.4 °F 39.0 °F 97% 29.65 in 10.0 mi WNW 16.1 mph 27.6 mph 0.00 in Rain Light Rain
5:11 AM 39.2 °F 31.2 °F 39.2 °F 100% 29.64 in 10.0 mi WNW 13.8 mph - 0.01 in Rain Light Rain
5:22 AM 39.2 °F 33.0 °F 39.2 °F 100% 29.65 in 10.0 mi NW 9.2 mph 21.9 mph 0.02 in Rain Light Rain
5:35 AM 41.0 °F 36.4 °F 39.2 °F 93% 29.64 in 5.0 mi ENE 6.9 mph - 0.04 in Rain Heavy Rain
5:53 AM 39.9 °F 33.9 °F 39.0 °F 97% 29.66 in 10.0 mi West 9.2 mph - 0.07 in Rain Light Rain
6:26 AM 39.2 °F 32.5 °F 37.4 °F 93% 29.65 in 10.0 mi WNW 10.4 mph - N/A   Overcast
6:53 AM 39.0 °F 32.3 °F 37.9 °F 96% 29.69 in 10.0 mi NW 10.4 mph - 0.01 in   Overcast
7:05 AM 39.2 °F 33.6 °F 37.4 °F 93% 29.67 in 10.0 mi WNW 8.1 mph - N/A   Overcast
7:53 AM 39.0 °F 32.8 °F 37.9 °F 96% 29.71 in 10.0 mi WNW 9.2 mph - N/A   Overcast
8:23 AM 39.2 °F 32.5 °F 37.4 °F 93% 29.69 in 10.0 mi West 10.4 mph - N/A   Overcast
8:53 AM 39.9 °F 33.9 °F 39.0 °F 97% 29.74 in 10.0 mi West 9.2 mph - 0.00 in Rain Light Rain
9:09 AM 41.0 °F 38.0 °F 39.2 °F 93% 29.73 in 10.0 mi SSW 4.6 mph - 0.00 in   Overcast
9:53 AM 42.1 °F 40.2 °F 39.9 °F 92% 29.75 in 10.0 mi ESE 3.5 mph - 0.00 in   Overcast
10:53 AM 44.1 °F 40.1 °F 42.1 °F 93% 29.76 in 10.0 mi North 6.9 mph - N/A   Overcast
11:16 AM 44.6 °F 38.8 °F 41.0 °F 87% 29.76 in 10.0 mi NW 11.5 mph - N/A   Overcast
11:53 AM 43.0 °F 36.4 °F 39.9 °F 89% 29.80 in 10.0 mi NW 12.7 mph - N/A   Overcast
12:53 PM 44.1 °F 39.0 °F 39.0 °F 82% 29.81 in 10.0 mi NNW 9.2 mph - N/A   Mostly Cloudy
1:53 PM 46.0 °F 43.1 °F 39.0 °F 76% 29.81 in 10.0 mi NW 5.8 mph - N/A   Overcast
2:17 PM 44.6 °F 38.8 °F 37.4 °F 76% 29.80 in 10.0 mi NW 11.5 mph - N/A   Overcast
2:24 PM 44.6 °F 39.2 °F 37.4 °F 76% 29.80 in 10.0 mi NW 10.4 mph - N/A   Overcast
2:32 PM 44.6 °F 40.2 °F 37.4 °F 76% 29.80 in 10.0 mi NNW 8.1 mph - N/A   Overcast
2:53 PM 45.0 °F 41.2 °F 37.0 °F 74% 29.82 in 10.0 mi NNE 6.9 mph - N/A   Overcast
3:53 PM 44.1 °F 40.1 °F 35.1 °F 71% 29.82 in 10.0 mi ENE 6.9 mph - N/A   Partly Cloudy
4:23 PM 44.6 °F 40.2 °F 35.6 °F 71% 29.82 in 10.0 mi NNE 8.1 mph - N/A   Mostly Cloudy
4:53 PM 44.6 °F 40.7 °F 35.6 °F 71% 29.83 in 10.0 mi NNE 6.9 mph - N/A   Overcast
5:53 PM 42.1 °F 37.1 °F 33.1 °F 70% 29.87 in 10.0 mi ENE 8.1 mph - N/A   Overcast
6:53 PM 41.0 °F 37.1 °F 34.0 °F 76% 29.89 in 10.0 mi East 5.8 mph - N/A   Overcast
7:53 PM 41.0 °F - 34.0 °F 76% 29.89 in 10.0 mi Calm Calm - N/A   Overcast
8:53 PM 41.0 °F 38.0 °F 36.0 °F 82% 29.88 in 10.0 mi ESE 4.6 mph - N/A   Overcast
9:04 PM 39.2 °F 37.0 °F 35.6 °F 87% 29.84 in 10.0 mi East 3.5 mph - N/A   Overcast
9:53 PM 39.9 °F - 35.1 °F 83% 29.88 in 10.0 mi Calm Calm - N/A   Overcast
10:53 PM 39.0 °F - 35.1 °F 86% 29.88 in 10.0 mi Calm Calm - N/A   Mostly Cloudy
11:53 PM 39.0 °F 34.8 °F 33.1 °F 79% 29.90 in 10.0 mi NE 5.8 mph - N/A   Overcast